WD6FGE Weather Reports


Display with metric or nautical units.
time (UTC)temp
F
wind
direction
speed
MPH
gust
MPH
rain 1hr
in
rain 24hr
in
rain mn
in
humidity
%
barometer
mb
20210228103340 24 205 0.0 0.0 0.00 0.00 0.00 78 1028.0
20210228102456 25 205 0.0 1.0 0.00 0.00 0.00 77 1027.8
20210228101315 26 205 1.0 3.0 0.00 0.00 0.00 73 1028.0
20210228100331 28 328 2.0 5.0 0.00 0.00 0.00 76 1027.9
20210228095327 27 348 2.0 5.0 0.00 0.00 0.00 77 1028.0
20210228094301 27 350 1.0 3.0 0.00 0.00 0.00 76 1027.9
20210228093305 26 332 2.0 3.0 0.00 0.00 0.00 77 1027.8
20210228092258 25 343 1.0 3.0 0.00 0.00 0.00 77 1027.8
20210228091250 25 5 0.0 2.0 0.00 0.00 0.00 76 1027.7
20210228090305 25 139 0.0 2.0 0.00 0.00 0.00 75 1027.7
20210228085332 26 139 0.0 0.0 0.00 0.00 0.00 75 1027.7
20210228084251 26 139 0.0 1.0 0.00 0.00 0.00 73 1027.7
20210228083215 27 139 1.0 3.0 0.00 0.00 0.00 71 1027.7
20210228082235 28 144 1.0 0.0 0.00 0.00 0.00 68 1027.6
20210228081217 31 5 0.0 6.0 0.00 0.00 0.00 67 1027.5
20210228080208 31 27 1.0 6.0 0.00 0.00 0.00 64 1027.3
20210228075248 31 28 1.0 2.0 0.00 0.00 0.00 64 1027.3
20210228074201 31 355 1.0 3.0 0.00 0.00 0.00 64 1027.4
20210228073139 31 355 1.0 3.0 0.00 0.00 0.00 63 1027.5
20210228072147 31 52 0.0 1.0 0.00 0.00 0.00 63 1027.4
20210228071149 31 52 0.0 4.0 0.00 0.00 0.00 63 1027.4
20210228070125 30 98 0.0 4.0 0.00 0.00 0.00 64 1027.3
20210228065134 31 59 1.0 3.0 0.00 0.00 0.00 62 1027.4
20210228064149 31 10 1.0 3.0 0.00 0.00 0.00 59 1027.3
20210228063326 31 150 0.0 1.0 0.00 0.00 0.00 61 1027.3
20210228062140 32 150 0.0 2.0 0.00 0.00 0.00 61 1027.3
20210228061140 33 15 1.0 3.0 0.00 0.00 0.00 58 1027.2
20210228060112 33 55 0.0 3.0 0.00 0.00 0.00 55 1027.2
20210228055135 33 0 0.0 2.0 0.00 0.00 0.00 55 1027.1
20210228054125 34 355 1.0 2.0 0.00 0.00 0.00 55 1026.9
20210228053208 34 23 0.0 2.0 0.00 0.00 0.00 51 1027.1
20210228052145 35 17 0.0 3.0 0.00 0.00 0.00 51 1026.9
20210228051128 35 15 1.0 3.0 0.00 0.00 0.00 51 1026.7
20210228050100 35 43 0.0 2.0 0.00 0.00 0.00 49 1026.5
20210228045036 35 5 0.0 5.0 0.00 0.00 0.00 50 1026.3
20210228044023 34 350 2.0 5.0 0.00 0.00 0.00 50 1026.0
20210228042932 34 327 1.0 4.0 0.00 0.00 0.00 49 1026.0
20210228041935 35 10 1.0 3.0 0.00 0.00 0.00 48 1025.8
20210228040955 35 345 0.0 1.0 0.00 0.00 0.00 45 1025.6
20210228035947 36 344 1.0 2.0 0.00 0.00 0.00 44 1025.4
20210228034959 36 59 0.0 2.0 0.00 0.00 0.00 41 1025.5
20210228034059 37 52 0.0 0.0 0.00 0.00 0.00 42 1025.5
20210228032917 39 51 1.0 5.0 0.00 0.00 0.00 37 1025.2
20210228031912 40 17 1.0 8.0 0.00 0.00 0.00 35 1025.1
20210228030903 40 34 2.0 8.0 0.00 0.00 0.00 34 1024.9
20210228025848 41 28 2.0 6.0 0.00 0.00 0.00 33 1024.8
20210228024927 42 322 2.0 4.0 0.00 0.00 0.00 31 1024.8
20210228023815 41 342 0.0 3.0 0.00 0.00 0.00 32 1024.8
20210228022915 42 355 1.0 3.0 0.00 0.00 0.00 31 1024.5
20210228021805 43 344 1.0 5.0 0.00 0.00 0.00 30 1024.4
20210228020754 43 343 1.0 5.0 0.00 0.00 0.00 29 1024.3
20210228015733 43 13 1.0 4.0 0.00 0.00 0.00 28 1024.0
20210228014743 44 340 1.0 6.0 0.00 0.00 0.00 29 1024.0
20210228013755 45 331 2.0 6.0 0.00 0.00 0.00 28 1023.9
20210228012908 46 339 2.0 4.0 0.00 0.00 0.00 26 1023.7
20210228011810 48 0 1.0 5.0 0.00 0.00 0.00 24 1023.7
20210228010802 48 28 2.0 8.0 0.00 0.00 0.00 23 1023.5
20210228005802 49 44 3.0 10.0 0.00 0.00 0.00 23 1023.3
20210228004856 49 37 5.0 12.0 0.00 0.00 0.00 22 1023.4
20210228003825 50 61 4.0 12.0 0.00 0.00 0.00 22 1023.2
20210228002935 51 47 3.0 12.0 0.00 0.00 0.00 21 1023.2
20210228001803 51 87 3.0 10.0 0.00 0.00 0.00 20 1023.1
20210228000733 52 312 3.0 7.0 0.00 0.00 0.00 23 1023.0
20210227235729 52 17 2.0 9.0 0.00 0.00 0.00 20 1023.0
20210227234727 52 327 3.0 10.0 0.00 0.00 0.00 22 1023.2
20210227233656 51 49 3.0 10.0 0.00 0.00 0.00 22 1023.0
20210227232924 52 306 3.0 9.0 0.00 0.00 0.00 24 1023.1
20210227231623 52 33 4.0 14.0 0.00 0.00 0.00 23 1023.0
20210227230611 52 76 3.0 14.0 0.00 0.00 0.00 24 1023.0
20210227225605 51 323 4.0 12.0 0.00 0.00 0.00 25 1023.0
20210227224544 52 35 4.0 12.0 0.00 0.00 0.00 23 1022.9
20210227223539 52 46 3.0 9.0 0.00 0.00 0.00 25 1023.0
20210227222626 52 277 2.0 8.0 0.00 0.00 0.00 25 1022.8
20210227221544 51 49 4.0 9.0 0.00 0.00 0.00 26 1022.8
20210227220531 51 63 2.0 9.0 0.00 0.00 0.00 30 1023.0
20210227215542 51 0 3.0 9.0 0.00 0.00 0.00 29 1022.9
20210227214559 51 38 4.0 13.0 0.00 0.00 0.00 29 1022.8
20210227213605 50 76 4.0 13.0 0.00 0.00 0.00 28 1022.9
20210227212625 51 122 4.0 9.0 0.00 0.00 0.00 28 1023.0
20210227211539 50 46 3.0 9.0 0.00 0.00 0.00 28 1022.9
20210227210544 50 72 3.0 8.0 0.00 0.00 0.00 32 1023.1
20210227205656 49 343 3.0 9.0 0.00 0.00 0.00 30 1023.2
20210227204529 49 60 4.0 12.0 0.00 0.00 0.00 31 1023.3
20210227203535 50 15 2.0 13.0 0.00 0.00 0.00 30 1023.4
20210227202614 49 22 4.0 13.0 0.00 0.00 0.00 32 1023.6
20210227201530 48 355 3.0 10.0 0.00 0.00 0.00 34 1023.6
20210227200527 47 294 3.0 9.0 0.00 0.00 0.00 37 1023.7
20210227195438 46 186 2.0 9.0 0.00 0.00 0.00 39 1024.0
20210227194423 47 92 3.0 9.0 0.00 0.00 0.00 38 1024.1
20210227193444 47 114 3.0 9.0 0.00 0.00 0.00 37 1024.2
20210227192421 46 174 3.0 9.0 0.00 0.00 0.00 39 1024.2
20210227191406 44 355 3.0 9.0 0.00 0.00 0.00 42 1024.1
20210227190400 44 111 2.0 9.0 0.00 0.00 0.00 40 1024.0
20210227185359 44 107 3.0 9.0 0.00 0.00 0.00 43 1024.0
20210227184414 43 355 3.0 9.0 0.00 0.00 0.00 44 1024.1
20210227183438 42 32 5.0 10.0 0.00 0.00 0.00 43 1024.3
20210227182446 43 78 2.0 10.0 0.00 0.00 0.00 46 1024.2
20210227181438 42 329 2.0 6.0 0.00 0.00 0.00 49 1024.2
20210227180416 40 173 3.0 6.0 0.00 0.00 0.00 56 1024.3
20210227175409 39 163 2.0 5.0 0.00 0.00 0.00 58 1024.5
20210227174408 38 188 1.0 4.0 0.00 0.00 0.00 60 1024.3
20210227173346 36 151 1.0 4.0 0.00 0.00 0.00 63 1024.5
20210227172325 35 175 1.0 3.0 0.00 0.00 0.00 66 1024.4
20210227171343 33 226 1.0 3.0 0.00 0.00 0.00 71 1024.3
20210227170337 33 221 1.0 3.0 0.00 0.00 0.00 74 1024.3
20210227165333 31 152 0.0 3.0 0.00 0.00 0.00 78 1024.5
20210227164329 29 152 1.0 3.0 0.00 0.00 0.00 82 1024.5
20210227163312 27 207 0.0 3.0 0.00 0.00 0.00 83 1024.4
20210227162348 26 207 1.0 2.0 0.00 0.00 0.00 85 1024.2
20210227161349 25 281 0.0 1.0 0.00 0.00 0.00 85 1024.3
20210227160329 23 282 0.0 1.0 0.00 0.00 0.00 86 1024.2
20210227155341 23 282 0.0 0.0 0.00 0.00 0.00 86 1024.0
20210227154259 21 282 0.0 1.0 0.00 0.00 0.00 86 1024.0
20210227153247 20 282 0.0 2.0 0.00 0.00 0.00 84 1023.6
20210227152259 20 281 0.0 1.0 0.00 0.00 0.00 85 1023.7
20210227151244 20 279 0.0 0.0 0.00 0.00 0.00 84 1023.5
20210227150257 20 279 0.0 0.0 0.00 0.00 0.00 84 1023.4
20210227145302 20 317 0.0 1.0 0.00 0.00 0.00 84 1023.2
20210227144232 20 317 0.0 1.0 0.00 0.00 0.00 84 1023.2
20210227143247 20 303 0.0 2.0 0.00 0.00 0.00 84 1023.0
20210227142249 20 302 0.0 2.0 0.00 0.00 0.00 83 1022.9
20210227141241 21 355 0.0 2.0 0.00 0.00 0.00 83 1022.8
20210227140214 21 314 0.0 1.0 0.00 0.00 0.00 82 1022.8
20210227135236 21 314 0.0 2.0 0.00 0.00 0.00 82 1022.9
20210227134225 22 313 0.0 3.0 0.00 0.00 0.00 82 1023.0
20210227133235 22 278 0.0 2.0 0.00 0.00 0.00 81 1022.8
20210227132246 22 277 0.0 2.0 0.00 0.00 0.00 80 1022.5
20210227131249 22 277 0.0 2.0 0.00 0.00 0.00 80 1022.6
20210227130216 23 217 0.0 3.0 0.00 0.00 0.00 79 1022.4
20210227125347 23 268 1.0 2.0 0.00 0.00 0.00 79 1022.3
20210227124221 24 327 0.0 1.0 0.00 0.00 0.00 79 1022.1
20210227123209 24 327 0.0 3.0 0.00 0.00 0.00 80 1022.1
20210227122235 24 324 1.0 2.0 0.00 0.00 0.00 80 1021.8
20210227121212 23 324 0.0 2.0 0.00 0.00 0.00 79 1021.9
20210227120226 24 325 1.0 3.0 0.00 0.00 0.00 78 1021.5
20210227115406 24 316 1.0 0.0 0.00 0.00 0.00 78 1021.5
20210227114229 24 315 0.0 2.0 0.00 0.00 0.00 78 1021.5
20210227113234 24 315 1.0 2.0 0.00 0.00 0.00 78 1021.7
20210227112247 24 320 0.0 3.0 0.00 0.00 0.00 77 1021.5
20210227111222 24 5 0.0 2.0 0.00 0.00 0.00 78 1021.6
20210227110239 24 5 0.0 2.0 0.00 0.00 0.00 77 1021.8
20210227105332 24 19 0.0 2.0 0.00 0.00 0.00 77 1021.9
20210227104217 24 19 0.0 2.0 0.00 0.00 0.00 78 1022.0